Temp
-10 -10 -10 -10 -10 -10 -10 -10 -10 -9 -9 -9 -10 -11 -11 -11 -11 -11 -11 -12 -12 -12 -12 -12 -12 -12 -12 -13 -13 -14 -14 -14 -13 -13 -14 -14 -15 -14 -14 -14 -14 -14 -14 -14
-10 -10 -11 -11 -10 -10 -10 -10 -10 -10 -10 -10 -11 -12 -12 -11 -12 -11 -11 -12 -12 -12 -12 -12 -12 -12 -12 -13 -13 -14 -14 -14 -13 -13 -13 -14 -14 -14 -14 -14 -14 -14 -14 -14
-10 -11 -11 -11 -11 -11 -10 -10 -10 -10 -10 -10 -11 -11 -13 -12 -11 -11 -12 -12 -13 -12 -12 -12 -12 -12 -12 -13 -13 -14 -13 -13 -13 -13 -13 -13 -13 -13 -13 -14 -13 -13 -13 -13
-11 -11 -11 -11 -11 -11 -11 -11 -12 -12 -12 -11 -12 -11 -14 -13 -12 -12 -12 -12 -13 -12 -12 -12 -12 -12 -12 -12 -13 -14 -13 -13 -13 -13 -13 -13 -13 -13 -13 -13 -14 -13 -13 -13
-11 -12 -12 -11 -11 -11 -11 -13 -12 -13 -12 -12 -12 -12 -11 -13 -12 -12 -13 -13 -13 -12 -12 -12 -12 -12 -12 -12 -13 -14 -14 -13 -12 -13 -13 -13 -13 -13 -13 -13 -13 -13 -13 -12
-12 -13 -12 -12 -11 -12 -13 -13 -13 -13 -13 -11 -12 -13 -11 -11 -12 -12 -13 -13 -13 -12 -12 -12 -12 -12 -12 -12 -13 -13 -14 -13 -12 -12 -13 -13 -13 -13 -13 -13 -13 -13 -13 -13
-12 -12 -12 -12 -11 -14 -14 -14 -14 -13 -13 -11 -14 -13 -12 -12 -12 -12 -13 -13 -12 -12 -12 -12 -12 -12 -12 -12 -13 -13 -13 -13 -12 -12 -13 -13 -13 -13 -13 -13 -13 -13 -13 -13
-13 -13 -13 -12 -12 -14 -14 -14 -14 -13 -13 -13 -14 -12 -13 -12 -12 -12 -13 -13 -12 -12 -12 -12 -12 -12 -12 -12 -13 -13 -13 -13 -13 -12 -12 -13 -13 -13 -13 -13 -13 -13 -13 -13
-12 -12 -13 -14 -14 -15 -14 -14 -14 -14 -14 -14 -13 -13 -13 -11 -12 -12 -13 -12 -12 -12 -12 -12 -12 -12 -12 -12 -12 -13 -13 -13 -13 -13 -12 -13 -13 -13 -13 -13 -13 -13 -13 -13
-13 -13 -14 -14 -14 -14 -15 -14 -14 -14 -14 -14 -13 -13 -12 -12 -12 -13 -13 -12 -12 -12 -12 -12 -12 -12 -12 -12 -12 -13 -13 -13 -13 -13 -13 -13 -13 -13 -13 -13 -13 -13 -13 -12
-14 -14 -14 -14 -15 -14 -15 -15 -15 -14 -14 -13 -13 -13 -13 -13 -12 -13 -13 -12 -12 -12 -12 -12 -12 -12 -12 -12 -12 -12 -13 -13 -13 -13 -13 -13 -13 -13 -13 -13 -12 -12 -13 -13
-14 -14 -14 -14 -14 -15 -15 -15 -14 -14 -13 -14 -14 -13 -14 -13 -13 -13 -13 -11 -12 -12 -12 -12 -12 -12 -12 -12 -12 -12 -13 -13 -12 -13 -13 -13 -13 -13 -13 -13 -13 -13 -13 -12
-15 -14 -15 -14 -14 -14 -14 -14 -14 -14 -14 -14 -14 -13 -14 -13 -12 -12 -12 -11 -12 -12 -12 -12 -12 -12 -12 -12 -12 -12 -12 -13 -13 -13 -13 -13 -13 -13 -13 -13 -13 -13 -12 -12
-14 -14 -13 -13 -13 -13 -13 -13 -14 -13 -13 -13 -13 -14 -13 -13 -12 -12 -11 -11 -12 -12 -12 -12 -12 -12 -12 -12 -12 -12 -12 -12 -12 -13 -13 -13 -13 -13 -13 -13 -13 -13 -13 -13
-14 -14 -13 -14 -14 -14 -14 -14 -15 -13 -12 -13 -13 -14 -13 -13 -13 -13 -13 -12 -11 -12 -12 -12 -12 -12 -12 -12 -13 -13 -13 -13 -12 -13 -13 -13 -13 -13 -13 -13 -13 -13 -13 -13
-13 -14 -15 -15 -14 -14 -14 -14 -13 -13 -13 -12 -13 -12 -13 -14 -13 -13 -13 -12 -12 -12 -12 -12 -12 -12 -12 -13 -13 -13 -13 -13 -13 -13 -13 -13 -13 -13 -13 -13 -13 -13 -13 -13
-13 -13 -14 -14 -14 -14 -13 -13 -13 -13 -13 -13 -13 -13 -13 -14 -14 -13 -13 -13 -12 -12 -12 -12 -12 -12 -12 -13 -13 -13 -12 -12 -12 -13 -13 -13 -13 -13 -13 -13 -13 -13 -13 -13
-14 -14 -14 -15 -15 -14 -12 -13 -14 -13 -13 -13 -13 -13 -13 -13 -13 -13 -12 -13 -12 -12 -12 -12 -12 -12 -12 -12 -13 -12 -12 -12 -12 -12 -12 -12 -12 -12 -12 -12 -12 -12 -12 -12
-14 -14 -13 -14 -14 -14 -13 -13 -13 -13 -13 -14 -13 -13 -14 -13 -13 -13 -13 -13 -13 -12 -11 -12 -12 -12 -12 -12 -12 -12 -12 -12 -12 -12 -12 -12 -12 -12 -12 -12 -12 -12 -12 -12
-14 -14 -14 -14 -14 -13 -12 -13 -14 -14 -12 -13 -14 -13 -14 -13 -12 -12 -13 -13 -13 -13 -12 -12 -12 -12 -12 -12 -12 -12 -12 -12 -12 -12 -12 -12 -12 -12 -12 -12 -12 -12 -12 -12
-13 -13 -14 -14 -14 -14 -13 -12 -13 -13 -11 -13 -13 -13 -14 -13 -13 -13 -13 -13 -13 -13 -12 -12 -12 -12 -12 -12 -12 -12 -12 -12 -12 -12 -12 -12 -12 -12 -12 -12 -12 -12 -12 -13
-14 -13 -13 -13 -13 -13 -13 -12 -13 -13 -13 -13 -13 -12 -13 -14 -13 -13 -13 -13 -13 -13 -13 -12 -12 -12 -12 -12 -12 -12 -12 -12 -12 -12 -12 -12 -12 -12 -12 -12 -12 -12 -12 -13
-15 -14 -14 -14 -13 -14 -14 -14 -14 -13 -13 -13 -13 -13 -14 -14 -13 -12 -13 -13 -13 -13 -14 -13 -12 -13 -13 -12 -12 -12 -12 -12 -12 -12 -12 -12 -12 -12 -12 -12 -12 -12 -12 -13
-15 -14 -14 -15 -14 -15 -14 -14 -14 -13 -13 -13 -13 -14 -13 -13 -13 -13 -13 -13 -13 -14 -13 -13 -12 -13 -13 -13 -12 -13 -12 -12 -12 -12 -12 -12 -12 -12 -12 -12 -12 -12 -12 -13
-15 -15 -15 -15 -14 -15 -14 -14 -14 -13 -13 -13 -13 -13 -14 -13 -14 -14 -13 -14 -13 -13 -13 -13 -13 -12 -13 -13 -13 -13 -12 -12 -12 -12 -12 -12 -12 -12 -13 -12 -12 -12 -12 -12
-16 -16 -15 -15 -14 -14 -14 -13 -13 -13 -14 -14 -14 -14 -14 -14 -13 -13 -13 -13 -13 -13 -13 -12 -13 -13 -13 -13 -13 -13 -12 -12 -12 -12 -12 -12 -12 -12 -12 -13 -13 -12 -13 -13
Height
5828 5830 5832 5833 5834 5834 5833 5833 5834 5831 5830 5829 5827 5826 5824 5823 5821 5821 5819 5813 5808 5803 5800 5795 5787 5781 5775 5767 5760 5754 5748 5744 5738 5732 5727 5724 5720 5716 5715 5713 5715 5715 5715 5714
5822 5824 5826 5827 5828 5828 5828 5828 5828 5828 5827 5824 5822 5822 5819 5819 5820 5820 5816 5811 5807 5803 5800 5795 5788 5783 5776 5769 5762 5757 5752 5748 5743 5737 5734 5731 5728 5725 5722 5721 5722 5722 5724 5725
5814 5820 5817 5819 5821 5822 5822 5823 5824 5823 5821 5819 5819 5820 5816 5816 5817 5816 5813 5809 5805 5802 5800 5795 5789 5784 5778 5771 5764 5760 5755 5752 5747 5742 5739 5738 5735 5733 5730 5728 5729 5729 5729 5732
5807 5813 5813 5814 5816 5817 5817 5819 5819 5817 5816 5816 5816 5815 5816 5814 5814 5814 5810 5808 5805 5801 5800 5796 5790 5786 5780 5774 5768 5763 5759 5756 5752 5749 5745 5742 5741 5740 5738 5735 5737 5737 5738 5739
5807 5804 5805 5808 5813 5811 5813 5814 5814 5813 5813 5813 5813 5810 5813 5813 5814 5811 5808 5806 5804 5802 5800 5797 5791 5788 5782 5777 5771 5767 5763 5760 5757 5754 5752 5749 5747 5747 5747 5743 5744 5744 5744 5740
5797 5797 5797 5803 5804 5805 5809 5808 5808 5809 5809 5808 5813 5808 5808 5808 5809 5807 5806 5805 5803 5801 5799 5797 5792 5789 5784 5779 5775 5771 5767 5764 5762 5760 5758 5756 5754 5754 5754 5753 5754 5753 5751 5754
5788 5789 5793 5796 5797 5800 5803 5804 5805 5805 5804 5806 5808 5803 5806 5804 5804 5805 5805 5804 5801 5800 5798 5796 5793 5791 5786 5782 5778 5774 5771 5768 5766 5765 5764 5764 5761 5762 5762 5761 5760 5761 5761 5761
5779 5782 5788 5792 5792 5794 5797 5801 5801 5800 5802 5804 5802 5800 5801 5802 5802 5803 5803 5803 5800 5799 5798 5796 5794 5791 5787 5784 5781 5778 5776 5772 5770 5769 5768 5768 5769 5767 5768 5768 5768 5767 5768 5770
5773 5776 5783 5786 5787 5791 5793 5795 5800 5797 5798 5797 5798 5799 5796 5800 5801 5802 5801 5802 5800 5798 5797 5795 5794 5792 5790 5787 5784 5781 5780 5778 5775 5773 5773 5772 5772 5773 5774 5774 5774 5774 5775 5776
5768 5771 5776 5780 5782 5783 5786 5793 5792 5792 5791 5791 5793 5794 5796 5797 5800 5801 5800 5800 5801 5798 5797 5795 5794 5793 5791 5789 5787 5785 5784 5783 5781 5778 5776 5775 5776 5777 5778 5779 5780 5780 5781 5783
5761 5765 5772 5772 5774 5778 5782 5783 5784 5788 5788 5789 5789 5791 5795 5797 5796 5797 5797 5798 5799 5797 5796 5795 5795 5794 5793 5791 5790 5788 5787 5786 5785 5784 5782 5780 5779 5780 5781 5782 5783 5785 5786 5788
5755 5758 5761 5763 5768 5772 5775 5776 5778 5782 5786 5785 5784 5788 5793 5796 5794 5794 5794 5797 5798 5795 5796 5795 5795 5795 5794 5793 5793 5792 5790 5790 5789 5789 5788 5786 5786 5786 5787 5788 5789 5791 5791 5792
5749 5749 5751 5754 5761 5762 5764 5769 5773 5777 5779 5780 5781 5786 5788 5791 5793 5793 5794 5796 5796 5796 5796 5795 5796 5796 5796 5795 5795 5795 5793 5793 5793 5793 5793 5793 5791 5792 5793 5794 5794 5795 5797 5798
5741 5742 5740 5741 5753 5760 5761 5765 5768 5768 5771 5777 5776 5781 5783 5786 5788 5791 5791 5794 5793 5795 5796 5795 5796 5797 5797 5797 5797 5797 5797 5797 5796 5795 5796 5797 5797 5797 5797 5798 5799 5800 5801 5802
5727 5730 5735 5738 5744 5750 5753 5757 5763 5762 5767 5767 5776 5775 5779 5783 5785 5788 5789 5790 5792 5792 5794 5795 5796 5797 5797 5798 5799 5799 5800 5800 5800 5800 5799 5800 5801 5802 5802 5802 5803 5803 5805 5806
5718 5719 5728 5729 5734 5739 5742 5747 5751 5756 5760 5760 5766 5770 5771 5780 5780 5779 5784 5787 5789 5790 5791 5794 5795 5796 5797 5798 5799 5801 5802 5802 5803 5803 5803 5802 5803 5804 5806 5807 5807 5809 5810 5811
5701 5712 5716 5720 5725 5730 5730 5738 5746 5748 5755 5759 5761 5766 5766 5772 5776 5776 5780 5785 5787 5788 5789 5792 5794 5795 5796 5798 5799 5801 5803 5804 5805 5805 5806 5806 5806 5807 5808 5809 5810 5811 5812 5813
5689 5704 5708 5713 5717 5716 5720 5733 5739 5742 5745 5749 5757 5762 5762 5767 5769 5774 5777 5781 5784 5786 5787 5791 5792 5793 5795 5797 5799 5802 5803 5805 5806 5806 5807 5808 5808 5809 5810 5811 5812 5813 5814 5814
5686 5694 5699 5702 5705 5709 5714 5724 5732 5734 5742 5746 5752 5757 5759 5761 5761 5762 5773 5777 5780 5782 5784 5788 5790 5791 5793 5796 5799 5801 5803 5805 5806 5807 5807 5808 5809 5810 5811 5811 5812 5813 5814 5814
5676 5682 5691 5694 5696 5697 5706 5720 5727 5730 5733 5741 5746 5749 5752 5753 5754 5760 5769 5772 5775 5779 5781 5784 5786 5787 5789 5793 5796 5800 5801 5804 5805 5807 5808 5808 5809 5810 5811 5811 5811 5812 5812 5812
5667 5674 5679 5684 5690 5692 5699 5709 5717 5721 5730 5737 5739 5743 5744 5744 5752 5759 5762 5765 5771 5776 5778 5779 5782 5784 5786 5789 5792 5796 5799 5802 5803 5805 5806 5807 5808 5809 5810 5810 5810 5810 5810 5810
5662 5665 5668 5676 5682 5686 5692 5700 5711 5720 5720 5726 5727 5731 5735 5740 5744 5749 5753 5760 5766 5768 5771 5774 5777 5780 5782 5785 5788 5790 5794 5796 5799 5801 5802 5804 5805 5807 5807 5808 5808 5808 5808 5808
5650 5659 5664 5671 5680 5687 5693 5698 5702 5707 5712 5717 5718 5725 5729 5734 5740 5744 5746 5750 5758 5762 5765 5769 5774 5776 5778 5780 5783 5786 5788 5791 5794 5797 5799 5800 5801 5803 5803 5803 5804 5804 5805 5805
5643 5651 5653 5663 5671 5674 5682 5688 5694 5701 5704 5709 5714 5718 5724 5731 5737 5738 5743 5745 5750 5755 5757 5763 5766 5770 5774 5776 5780 5782 5783 5786 5788 5791 5794 5796 5797 5796 5796 5797 5798 5799 5800 5800
5636 5641 5648 5656 5663 5669 5676 5680 5686 5690 5694 5700 5701 5705 5712 5722 5727 5730 5732 5737 5743 5749 5754 5756 5761 5765 5769 5772 5775 5776 5778 5781 5784 5785 5787 5789 5791 5792 5790 5791 5793 5794 5795 5796
5623 5634 5640 5649 5659 5663 5669 5675 5680 5683 5687 5690 5695 5701 5708 5715 5719 5721 5727 5731 5735 5744 5746 5751 5755 5760 5763 5766 5769 5771 5773 5776 5778 5780 5781 5782 5784 5785 5786 5786 5786 5787 5788 5789
Wind_Speed
21 25 19 18 19 18 19 19 16 17 17 14 12 14 19 14 17 15 16 17 21 22 23 25 24 27 28 29 32 24 21 22 24 21 25 23 22 18 17 17 19 14 20 28
24 23 18 22 24 22 24 22 21 20 17 16 18 15 25 16 17 13 12 17 22 21 21 22 21 24 26 27 29 24 20 20 24 21 19 20 23 24 22 19 21 27 33 31
25 17 24 26 26 24 23 21 21 22 19 19 20 14 22 22 15 11 14 18 23 20 19 20 17 21 23 26 27 23 19 17 23 25 20 19 21 22 26 29 32 26 31 36
28 21 25 26 25 25 24 20 20 23 23 24 22 21 16 22 17 10 12 17 22 20 16 19 14 19 20 23 25 23 18 16 20 25 25 22 21 22 25 33 28 34 31 29
18 23 26 25 22 23 15 18 24 27 27 28 20 26 14 22 12 5 14 20 22 20 14 16 12 15 16 20 21 22 18 13 16 21 24 26 25 23 21 31 32 20 27 29
26 27 28 24 23 21 15 18 24 25 29 27 12 25 20 17 13 7 13 18 20 18 12 13 10 12 14 16 18 20 16 13 13 17 21 25 27 25 26 27 27 28 28 32
25 30 30 30 28 22 23 17 26 30 30 19 11 24 7 13 13 9 13 14 16 15 8 10 9 8 12 14 16 17 17 18 12 13 16 19 25 25 24 24 25 25 26 26
25 30 26 25 28 25 24 21 25 25 20 12 18 17 12 7 13 12 10 11 12 8 6 8 7 5 10 12 14 16 19 20 17 15 13 15 15 22 23 20 22 23 28 30
27 28 19 24 27 27 28 27 16 20 18 23 23 20 10 5 14 10 8 10 9 4 5 6 6 2 7 10 12 15 15 16 23 17 16 15 15 15 16 19 21 23 23 25
26 27 19 25 30 26 31 24 24 26 24 26 22 16 9 14 11 2 6 8 6 1 3 4 5 3 7 10 12 15 16 14 17 22 21 15 15 16 16 16 18 19 21 21
16 28 22 28 33 33 33 35 36 29 29 25 22 19 17 15 10 4 9 4 2 2 2 3 4 4 9 10 10 14 16 15 17 16 17 22 16 17 17 17 18 19 20 18
19 19 30 30 33 35 32 37 39 36 28 26 26 22 19 16 13 6 6 5 3 4 3 3 4 5 7 10 10 11 15 15 17 18 19 21 25 23 24 25 24 24 23 22
26 32 35 39 35 41 43 43 41 44 33 25 28 18 14 18 15 20 6 7 4 4 5 5 5 5 5 9 11 10 13 14 15 17 19 20 21 23 23 23 23 22 21 21
36 36 38 45 33 34 40 38 35 30 28 31 28 19 14 17 10 16 9 10 7 4 4 5 6 6 6 8 10 11 11 12 13 16 17 18 19 20 20 21 22 22 22 21
46 45 36 30 31 32 32 32 34 38 24 34 27 21 13 18 14 8 16 16 11 9 4 6 6 6 8 9 8 9 9 10 10 13 16 17 17 17 18 18 19 20 20 20
43 40 48 52 43 36 36 35 37 34 26 30 31 23 15 22 22 20 18 17 13 10 7 6 7 7 6 10 11 8 6 6 7 8 12 13 13 14 15 15 16 16 17 17
34 45 50 52 52 49 48 37 33 30 21 30 30 18 19 29 24 22 17 13 12 10 9 9 11 10 8 10 10 9 5 3 4 6 6 9 10 11 11 11 11 11 12 11
55 56 55 46 52 53 44 39 31 27 30 26 26 20 27 22 12 17 18 18 17 15 11 10 12 12 10 10 12 10 7 4 2 4 5 6 6 6 5 5 4 4 5 4
47 61 62 56 54 53 47 36 36 38 32 19 22 26 32 24 22 18 16 19 17 19 17 13 13 14 13 13 13 14 11 7 4 4 3 3 3 4 3 3 1 1 2 3
59 49 64 62 61 57 44 34 34 32 36 35 32 27 32 31 28 21 21 18 18 18 20 16 13 15 16 16 15 15 14 12 9 7 5 4 3 2 1 2 2 4 5 6
61 61 58 65 65 62 53 34 40 40 37 34 39 36 36 39 28 20 26 20 21 18 19 20 15 13 16 19 18 18 19 16 16 14 12 9 8 6 5 5 5 5 7 8
65 60 63 64 59 55 52 38 33 28 36 31 35 34 46 43 35 29 29 18 19 18 18 20 17 15 14 16 21 20 20 22 21 19 17 15 13 11 9 10 9 9 9 9
65 53 57 57 49 45 44 45 39 30 32 33 35 27 42 46 39 34 23 25 22 22 26 24 18 19 18 16 18 20 22 21 22 20 18 17 16 14 14 14 15 13 12 12
61 53 61 55 48 48 46 47 40 39 36 25 34 37 37 38 38 31 24 30 34 29 39 35 21 19 21 20 17 18 21 21 21 22 22 21 20 20 20 19 18 16 15 14
62 60 41 38 46 47 40 40 40 36 35 34 30 26 35 46 35 31 33 33 30 35 31 25 21 23 20 21 22 22 19 18 18 20 21 21 22 21 22 22 21 19 19 16
65 59 52 47 45 40 38 40 33 22 30 29 30 20 22 28 39 44 36 39 39 30 27 35 35 24 27 24 27 26 23 19 18 19 20 21 21 23 24 24 23 21 19 18
Wind_Direction
246 240 243 239 247 253 264 268 270 274 279 296 308 301 304 304 298 307 323 333 338 346 343 349 358 358 358 2 8 8 18 27 37 44 54 61 68 77 83 93 106 120 119 98
241 242 236 238 246 253 262 267 271 271 277 292 305 298 299 310 295 317 338 350 347 345 341 347 359 357 3 6 12 9 21 32 45 59 61 61 73 74 87 100 102 113 109 103
250 232 230 239 241 247 256 265 272 272 276 276 295 296 299 298 294 316 340 350 349 347 339 345 358 357 9 13 16 13 25 39 52 61 67 69 75 76 92 92 101 111 119 117
251 245 246 241 245 248 250 265 251 257 261 278 283 285 270 292 285 316 333 348 346 347 335 342 357 357 9 18 18 18 26 43 59 64 72 74 80 90 105 110 101 110 117 118
259 240 241 244 245 244 251 235 233 232 246 264 277 287 275 266 270 298 348 347 340 344 330 340 355 355 10 22 23 22 27 45 59 72 71 78 84 97 106 100 102 109 108 112
231 234 236 235 230 240 232 239 234 227 247 262 303 283 276 270 276 351 344 333 334 338 323 340 351 357 16 27 33 29 38 53 64 72 77 82 87 95 103 111 107 102 104 109
245 234 240 240 236 247 239 239 243 249 250 274 252 266 263 291 301 327 328 333 338 332 323 344 351 1 27 34 42 40 49 59 71 77 84 88 99 100 108 111 107 111 112 97
242 238 239 247 239 243 248 253 273 279 274 253 220 252 267 271 276 329 294 321 339 331 337 351 359 10 41 44 53 61 56 63 71 78 93 102 104 112 113 113 108 113 113 112
244 240 223 229 226 235 252 251 292 271 246 228 218 260 291 307 304 300 305 316 336 335 351 355 7 58 62 58 66 72 64 64 66 80 89 97 121 118 116 114 117 121 118 117
247 239 221 220 226 235 254 260 263 244 246 230 235 259 262 278 270 267 299 324 310 28 17 5 19 122 94 79 77 77 72 71 74 68 81 98 102 117 118 119 123 125 125 120
239 235 207 217 225 225 239 247 253 240 245 243 239 249 253 268 259 232 266 282 271 127 72 42 42 136 108 94 85 86 81 78 76 74 78 77 116 109 116 117 114 117 115 112
240 247 232 228 221 224 229 248 249 256 246 232 245 249 253 250 268 197 236 189 166 125 108 84 77 136 115 107 100 93 90 87 87 86 84 90 95 110 112 114 115 116 118 115
236 239 246 228 224 225 227 228 247 251 242 232 244 240 246 249 252 228 214 194 133 135 132 113 102 132 128 117 110 108 104 96 96 97 95 97 104 106 110 113 117 120 121 122
231 237 240 239 231 239 244 241 247 251 246 232 230 235 245 248 257 205 242 218 153 125 153 127 126 133 136 130 120 111 105 104 107 106 103 100 102 106 107 109 112 116 117 117
217 233 235 241 241 242 248 248 247 251 261 241 214 237 238 256 246 266 233 212 183 147 164 164 158 147 156 150 136 114 99 100 106 115 114 110 106 104 104 101 100 99 99 101
208 222 231 243 242 236 231 231 225 234 236 207 216 227 217 249 255 226 206 207 197 169 157 195 181 174 174 170 154 138 114 95 100 117 121 115 112 105 101 99 99 101 103 102
235 209 222 237 240 243 241 232 224 231 249 248 237 234 214 233 250 261 207 233 215 192 168 203 189 190 182 177 172 156 140 110 95 100 123 123 115 109 108 105 106 114 116 113
204 220 225 229 238 241 242 242 231 235 239 245 228 233 229 231 227 243 239 231 236 237 187 210 202 198 199 191 188 177 164 160 146 117 111 111 113 106 104 107 117 128 130 121
218 216 224 228 232 239 245 234 243 241 226 217 245 247 232 226 232 225 230 219 236 242 211 196 206 204 205 206 204 203 191 187 182 162 142 132 129 119 110 104 119 195 241 260
226 217 220 227 234 237 245 236 227 244 231 228 235 222 218 220 233 221 235 239 223 240 224 205 198 208 208 215 213 212 220 209 197 195 189 175 171 175 217 269 284 282 273 269
217 220 224 227 233 241 244 235 234 230 235 244 228 237 225 231 227 224 230 208 217 221 218 224 206 207 212 215 217 217 218 227 231 223 213 219 231 238 260 277 296 307 285 271
221 222 226 227 231 237 239 245 243 250 242 231 235 230 228 227 230 226 232 214 237 225 220 226 219 225 222 219 219 219 223 223 229 235 237 233 237 243 249 259 272 282 275 269
217 224 232 234 236 245 244 248 242 230 235 225 230 237 227 232 231 225 230 242 250 244 234 238 231 229 230 225 222 221 226 228 230 229 229 241 247 251 257 264 270 273 263 261
217 228 231 229 232 241 245 245 246 247 255 227 226 226 229 226 225 229 223 234 246 249 228 235 228 230 228 230 227 224 225 231 235 238 237 239 245 253 253 253 259 259 252 244
219 221 224 222 224 236 237 238 237 236 235 236 245 242 236 232 235 222 232 232 231 233 233 234 230 228 229 223 235 233 222 226 237 243 244 240 236 236 246 252 253 251 248 241
221 229 234 234 235 242 237 242 232 234 227 219 231 218 226 229 236 233 233 234 218 226 248 236 241 246 231 235 230 236 235 234 240 243 242 241 238 237 235 242 251 249 243 240